Temperature
2 2 2 2 2 2 2 2 2 2 2 2 2 2 2 2 2 2 2 2 2 2 2 3 3 3 3 3 2 2 2 2 2 2 3 3 2 2 2 2 2 2 2
2 1 1 1 1 1 1 1 1 1 1 2 2 2 2 2 2 2 2 2 2 2 2 2 2 2 2 2 2 2 2 2 2 2 2 2 2 2 2 2 2 2 2
1 1 1 1 1 1 1 1 1 1 1 1 1 1 1 1 1 1 1 1 1 1 1 1 1 1 1 1 1 1 1 1 1 1 1 2 1 1 1 1 1 1 1
0 0 0 0 0 0 0 0 0 0 0 0 0 0 0 0 0 1 1 1 1 1 1 0 0 1 1 1 1 1 1 1 1 1 1 1 1 1 1 1 1 1 1
-0 -0 -0 -0 0 0 0 0 -0 -0 -0 -0 -0 -0 -0 -0 -0 -0 -0 -0 -0 -0 -0 -0 -0 0 0 0 0 0 0 0 0 -0 -0 -0 -0 -0 -0 -0 -0 -0 0
-1 -1 -1 -0 -0 -0 -0 -0 -0 -1 -1 -1 -1 -1 -1 -1 -1 -1 -1 -1 -1 -1 -1 -0 -0 -0 -0 -0 -0 -1 -1 -1 -1 -1 -1 -1 -1 -1 -1 -1 -1 -1 -1
-1 -1 -1 -1 -1 -1 -1 -1 -1 -1 -1 -1 -1 -1 -1 -1 -1 -1 -1 -1 -1 -1 -1 -1 -1 -1 -1 -1 -1 -1 -1 -1 -1 -1 -1 -1 -1 -1 -1 -2 -2 -2 -2
-2 -2 -2 -2 -2 -1 -1 -1 -1 -2 -2 -2 -2 -2 -2 -2 -1 -1 -1 -2 -2 -2 -2 -2 -2 -1 -1 -1 -2 -2 -2 -2 -2 -2 -2 -2 -2 -2 -2 -2 -2 -2 -2
-2 -2 -2 -2 -2 -2 -2 -2 -2 -2 -2 -2 -2 -2 -2 -2 -2 -2 -2 -2 -2 -2 -2 -2 -2 -2 -2 -2 -2 -2 -2 -2 -2 -2 -2 -2 -2 -2 -2 -2 -2 -3 -3
-3 -3 -3 -3 -3 -2 -2 -2 -2 -2 -2 -3 -3 -2 -2 -2 -2 -2 -2 -2 -2 -3 -3 -3 -3 -3 -3 -3 -3 -3 -3 -2 -2 -2 -2 -2 -2 -2 -2 -3 -3 -3 -3
-3 -3 -3 -3 -3 -3 -3 -3 -3 -3 -3 -3 -3 -3 -3 -3 -3 -3 -3 -3 -3 -3 -3 -3 -3 -3 -3 -3 -3 -3 -3 -3 -3 -3 -3 -3 -3 -3 -3 -3 -3 -3 -4
-3 -3 -3 -3 -3 -3 -3 -3 -3 -3 -3 -3 -3 -3 -3 -3 -3 -3 -3 -4 -4 -4 -3 -3 -3 -3 -3 -3 -3 -3 -3 -4 -3 -3 -3 -3 -3 -3 -3 -3 -3 -4 -4
-4 -4 -4 -4 -4 -4 -4 -4 -4 -4 -3 -3 -3 -4 -4 -4 -4 -4 -4 -4 -4 -4 -4 -4 -4 -4 -4 -4 -4 -4 -4 -4 -4 -4 -4 -4 -4 -4 -4 -4 -4 -4 -4
-4 -4 -4 -4 -4 -4 -4 -4 -4 -4 -4 -4 -4 -4 -4 -4 -4 -4 -4 -4 -4 -4 -4 -4 -4 -4 -4 -4 -4 -4 -4 -4 -4 -4 -4 -4 -4 -4 -4 -4 -4 -4 -4
-4 -5 -5 -5 -5 -4 -5 -5 -5 -5 -5 -5 -4 -4 -4 -4 -4 -4 -5 -5 -4 -4 -5 -5 -4 -4 -4 -5 -4 -4 -4 -4 -4 -5 -4 -4 -5 -5 -5 -5 -5 -5 -5
-5 -5 -5 -5 -5 -5 -5 -5 -5 -5 -5 -5 -5 -5 -5 -5 -5 -5 -5 -5 -5 -5 -5 -5 -5 -5 -5 -5 -5 -5 -5 -5 -5 -5 -5 -5 -5 -5 -5 -5 -6 -6 -5
-5 -5 -5 -5 -5 -5 -5 -5 -5 -5 -5 -5 -5 -5 -5 -5 -5 -5 -5 -5 -5 -5 -5 -5 -5 -5 -5 -5 -5 -5 -6 -6 -6 -5 -5 -5 -5 -6 -6 -6 -6 -6 -6
-5 -5 -5 -5 -5 -5 -5 -6 -6 -6 -5 -5 -5 -5 -5 -5 -5 -5 -5 -5 -5 -5 -5 -5 -6 -6 -6 -6 -6 -6 -6 -6 -6 -6 -6 -6 -6 -6 -6 -6 -6 -6 -6
-5 -5 -6 -6 -6 -6 -6 -6 -6 -6 -6 -6 -6 -6 -6 -6 -6 -6 -6 -5 -6 -6 -6 -6 -6 -6 -6 -6 -6 -6 -6 -6 -6 -6 -6 -6 -6 -6 -6 -6 -6 -6 -6
-6 -6 -6 -6 -6 -6 -6 -6 -6 -6 -6 -6 -6 -6 -6 -6 -6 -6 -6 -6 -6 -6 -6 -6 -6 -6 -6 -6 -6 -6 -6 -6 -6 -6 -6 -6 -6 -6 -6 -6 -6 -6 -6
-6 -6 -6 -6 -6 -6 -6 -6 -6 -6 -7 -6 -7 -7 -7 -7 -6 -7 -7 -7 -7 -7 -7 -7 -7 -7 -7 -7 -7 -7 -7 -7 -7 -7 -7 -7 -7 -7 -7 -7 -7 -7 -6
-6 -6 -6 -6 -6 -6 -7 -7 -7 -7 -7 -7 -7 -7 -7 -7 -7 -7 -7 -7 -7 -7 -7 -7 -7 -7 -7 -7 -7 -7 -7 -7 -7 -7 -7 -7 -7 -7 -7 -7 -7 -7 -7
-6 -6 -7 -7 -7 -7 -7 -7 -7 -7 -7 -7 -7 -7 -7 -7 -7 -7 -7 -7 -7 -7 -7 -7 -7 -7 -7 -7 -7 -7 -7 -7 -7 -7 -7 -7 -7 -7 -7 -7 -7 -7 -7
-7 -7 -7 -7 -7 -7 -7 -7 -7 -7 -7 -7 -7 -7 -7 -7 -7 -7 -7 -7 -7 -7 -7 -7 -7 -7 -7 -7 -7 -7 -7 -7 -7 -7 -7 -7 -7 -7 -7 -7 -7 -7 -7
-7 -7 -7 -7 -7 -7 -7 -7 -7 -7 -7 -7 -7 -7 -7 -7 -7 -7 -7 -7 -7 -7 -7 -7 -7 -7 -7 -7 -7 -7 -7 -7 -7 -7 -7 -7 -7 -7 -7 -7 -7 -7 -7
-7 -7 -7 -7 -7 -7 -8 -8 -7 -7 -8 -8 -8 -8 -8 -8 -7 -7 -7 -7 -7 -7 -7 -7 -7 -7 -7 -7 -7 -7 -7 -7 -7 -7 -7 -7 -7 -7 -7 -7 -7 -7 -7
Wind_Speed
2 2 3 3 3 3 3 3 3 3 2 3 3 3 2 2 2 2 3 3 3 3 3 3 4 3 3 3 3 3 3 3 4 4 2 2 2 3 4 5 5 6 7
3 2 3 3 3 3 3 3 3 3 3 2 2 3 3 3 3 3 4 3 4 4 4 4 4 3 3 3 3 3 3 3 4 5 3 2 2 3 3 3 5 5 6
2 2 2 2 2 3 3 2 2 2 2 2 2 3 3 4 4 4 4 4 4 4 4 4 4 4 4 3 3 3 3 3 3 3 3 2 2 2 2 3 3 4 5
2 2 2 3 3 3 2 2 2 2 2 2 2 3 3 3 4 4 4 4 4 3 3 4 4 5 5 4 4 3 3 2 2 2 3 2 2 2 1 2 4 3 4
2 2 3 3 3 2 2 2 2 2 2 2 2 2 2 2 3 3 3 4 4 3 3 3 4 5 6 5 4 4 3 3 2 3 3 3 2 2 2 2 4 4 4
2 2 3 3 2 2 2 2 2 2 2 1 1 2 2 2 3 4 3 3 3 3 4 3 3 4 5 5 5 5 4 4 4 4 3 4 4 3 3 3 3 3 4
2 2 2 2 2 2 2 2 1 1 1 1 1 1 2 3 4 4 4 3 3 3 4 3 3 3 3 3 4 4 4 5 6 5 5 6 5 4 3 4 4 4 5
2 2 2 2 2 2 2 2 1 1 1 1 1 2 2 3 4 4 3 2 2 2 3 3 4 4 4 4 3 3 4 4 5 4 5 5 5 4 4 4 4 4 4
2 2 2 2 2 2 2 2 1 1 1 1 1 2 2 4 5 4 3 1 1 2 3 3 3 4 5 4 3 3 3 3 4 4 5 5 5 5 4 2 2 2 4
2 2 2 2 2 2 2 1 1 1 1 1 1 2 2 3 5 4 3 2 2 2 2 3 4 4 5 5 3 3 4 3 2 2 1 2 3 3 4 2 3 3 3
2 2 2 2 2 1 1 1 1 1 1 1 1 2 2 3 4 4 2 1 2 2 2 2 2 4 5 5 4 3 5 3 2 2 1 1 1 1 2 2 3 3 3
2 2 2 2 2 1 1 1 1 0 0 1 1 2 2 3 3 3 3 2 1 1 2 2 2 4 4 5 4 3 4 2 1 1 1 1 2 2 2 2 3 3 4
2 2 2 3 2 2 1 1 1 1 0 1 1 2 2 2 3 4 4 3 3 1 1 3 3 3 3 3 3 3 2 1 1 1 2 2 2 2 2 2 2 2 3
1 2 2 2 2 2 2 1 1 1 1 1 1 2 2 2 2 2 2 2 2 2 1 2 3 3 2 2 2 1 0 1 2 2 2 1 1 1 1 1 1 2 2
1 1 1 1 1 2 2 1 1 1 0 1 1 2 2 2 3 3 2 2 1 1 1 0 1 1 1 1 1 1 1 0 0 0 1 1 1 1 1 1 2 2 2
0 1 1 1 1 1 2 2 3 3 4 3 3 2 2 3 5 5 4 4 3 2 1 1 1 1 1 1 1 1 1 0 0 0 1 1 1 2 2 2 1 1 2
0 1 1 1 1 1 1 1 2 4 5 5 5 5 5 5 5 5 4 4 4 3 1 1 1 1 1 1 1 1 1 1 1 1 1 1 1 2 2 2 2 2 2
0 1 1 0 0 1 1 1 1 2 3 3 4 6 6 7 6 6 5 3 3 2 1 1 1 1 1 1 1 1 1 1 1 1 1 1 1 2 2 2 2 2 2
0 1 1 0 0 0 1 1 1 1 2 2 3 4 7 7 6 6 5 2 1 2 2 2 2 2 2 2 2 2 2 2 2 1 1 2 2 2 2 2 2 3 3
1 1 1 1 0 0 1 1 1 1 1 2 2 3 4 4 3 4 3 2 2 2 2 2 2 2 2 2 2 2 2 2 2 2 2 2 2 2 2 3 3 2 2
1 1 1 1 1 0 0 0 0 1 1 2 2 3 4 2 2 2 3 3 2 2 2 2 2 2 2 2 2 2 2 2 2 2 2 2 2 2 2 2 2 2 1
0 0 0 0 1 1 1 1 0 1 1 2 2 3 5 3 2 2 2 3 3 3 2 2 2 2 2 2 2 2 2 2 2 2 2 2 2 2 2 2 2 2 1
0 0 1 1 1 1 1 1 1 1 1 2 2 2 2 2 2 2 3 3 3 3 3 3 2 2 2 2 2 2 2 2 3 2 2 2 2 2 2 2 2 2 2
0 0 0 0 0 0 0 1 1 1 1 2 2 2 2 2 2 3 3 3 3 3 3 3 3 3 3 3 3 3 3 4 4 3 3 2 2 2 2 2 2 2 2
1 0 0 1 1 1 1 1 1 2 2 2 2 2 2 2 3 3 3 3 3 3 4 4 4 4 4 4 4 4 4 4 4 3 2 2 2 2 2 2 2 2 2
1 0 1 1 1 1 1 1 1 2 2 2 2 2 2 3 3 3 3 3 3 3 4 4 4 4 5 4 5 5 5 4 4 3 2 1 1 2 2 1 2 1 1
Wind_Direction
282 278 278 274 268 261 255 259 260 265 253 240 241 247 249 249 246 235 240 229 227 236 235 229 235 232 230 234 229 229 232 220 247 271 256 271 259 273 302 299 296 294 293
289 289 280 280 275 264 261 261 266 264 258 248 242 240 250 251 242 236 244 241 232 236 237 232 237 236 234 235 230 228 231 229 232 263 275 281 277 273 282 286 304 297 293
307 299 290 290 281 272 272 269 272 268 268 274 262 248 250 249 239 236 237 238 236 238 237 232 232 225 237 237 230 229 231 241 229 243 265 277 280 285 296 302 301 303 303
312 300 290 292 284 277 280 287 284 273 262 261 262 259 259 253 237 234 235 230 233 238 236 232 230 223 228 228 228 222 219 224 226 241 266 282 283 287 286 298 309 302 298
304 299 295 301 303 301 302 297 297 291 276 265 269 278 279 266 245 237 233 225 225 236 244 243 239 237 239 234 232 216 206 212 221 241 263 277 276 280 274 285 291 300 291
301 302 311 318 320 318 305 295 291 288 288 291 280 280 292 293 276 256 242 226 222 230 243 248 246 248 254 256 253 245 228 219 221 232 254 256 258 261 262 272 281 297 292
306 309 316 315 319 313 304 304 292 285 293 295 293 293 294 296 294 281 255 222 219 231 238 240 251 253 260 238 254 265 264 263 252 237 238 245 250 248 243 253 258 274 273
323 319 316 321 319 324 331 322 317 292 276 275 291 295 296 304 307 294 272 215 215 231 234 235 238 244 246 229 225 241 247 254 257 249 237 245 247 244 234 246 255 272 278
327 315 314 313 311 323 330 324 309 300 301 294 291 296 301 306 308 298 280 214 222 242 247 243 239 239 254 249 224 230 254 273 286 271 264 268 278 283 277 254 256 277 286
312 308 310 308 304 305 305 303 306 300 289 298 313 308 301 300 307 299 272 216 232 255 265 258 251 246 254 252 223 216 240 255 257 284 294 301 297 287 281 244 231 252 284
322 327 326 320 315 304 323 320 310 325 343 339 327 321 318 316 320 318 298 235 224 242 261 263 259 265 262 257 251 224 241 254 225 207 236 277 291 285 288 277 250 239 252
338 345 339 335 334 348 5 348 315 268 292 313 325 329 332 329 333 330 329 317 294 247 271 272 268 275 272 268 270 261 263 268 200 210 246 271 278 281 280 286 287 279 263
4 359 355 358 357 2 13 355 347 350 11 327 326 325 329 333 331 332 334 332 325 313 276 294 304 305 307 299 284 272 270 205 200 221 246 265 269 268 283 301 312 315 308
15 1 359 7 3 2 7 14 10 348 345 333 324 319 322 328 323 320 323 327 329 323 311 323 342 353 354 341 335 340 316 198 208 221 240 260 278 282 290 290 297 308 314
14 360 358 359 355 354 360 0 356 357 327 316 301 295 299 305 310 314 304 292 254 235 276 360 25 7 15 4 356 360 13 45 331 219 230 278 296 305 304 304 294 296 287
5 342 337 352 354 3 2 359 2 6 4 4 356 340 324 319 322 325 328 334 332 322 345 30 352 344 326 318 326 337 344 343 306 276 243 243 270 283 300 312 312 299 289
236 291 315 340 358 3 4 6 354 358 8 12 11 6 1 354 351 348 352 358 357 5 33 18 331 321 315 309 312 310 308 301 278 249 251 256 272 283 291 295 299 297 290
327 314 320 299 320 335 338 342 339 343 348 349 354 358 359 359 358 359 5 17 19 25 27 355 333 324 321 310 301 301 301 306 297 279 270 271 268 275 287 289 286 283 288
319 328 336 349 329 331 340 339 337 337 340 340 346 347 354 358 4 10 18 36 26 7 1 346 331 324 316 309 300 294 290 291 296 291 282 281 276 272 279 283 283 290 295
327 334 357 358 355 4 356 355 354 347 345 346 343 337 344 357 8 6 13 11 3 351 343 330 324 318 310 306 301 298 296 295 295 285 280 281 282 277 276 278 278 280 286
345 333 350 359 347 322 322 328 328 335 338 334 327 332 343 354 356 353 354 353 342 329 321 313 308 306 305 301 296 295 294 292 289 288 288 289 290 288 283 279 285 287 290
28 342 334 314 317 327 325 317 323 321 322 320 320 330 345 359 351 343 338 335 330 324 316 306 302 303 304 296 288 289 293 294 293 290 291 291 293 295 292 295 299 299 291
45 4 5 352 342 334 355 355 336 313 312 316 321 327 337 339 335 332 328 328 329 328 325 321 318 318 315 309 300 283 273 279 281 278 275 278 281 287 291 296 295 297 294
82 87 4 332 328 317 320 316 310 308 308 310 317 318 321 319 317 319 320 319 319 320 320 322 317 315 315 317 315 298 281 275 276 270 255 250 262 276 285 289 286 281 283
64 37 357 331 339 342 337 324 320 317 314 310 314 316 317 315 315 316 315 317 319 322 325 324 321 320 320 317 315 310 304 297 290 279 250 228 249 265 277 280 279 292 292
54 15 348 339 333 332 324 316 318 323 320 318 313 307 306 306 307 310 315 319 324 326 327 327 325 324 320 317 314 313 311 307 301 289 257 209 241 265 277 274 283 289 291
Height
1471 1470 1469 1468 1467 1467 1467 1466 1466 1465 1465 1465 1466 1466 1466 1466 1467 1468 1468 1469 1469 1469 1470 1470 1471 1473 1473 1474 1475 1476 1476 1477 1476 1476 1476 1476 1476 1475 1475 1474 1473 1473 1472
1468 1467 1466 1465 1464 1463 1463 1462 1462 1462 1462 1462 1462 1462 1462 1463 1463 1464 1464 1464 1465 1465 1465 1466 1467 1468 1469 1469 1470 1471 1472 1472 1472 1471 1471 1471 1471 1471 1470 1469 1468 1468 1467
1464 1463 1462 1462 1461 1460 1460 1459 1459 1458 1458 1458 1458 1458 1459 1459 1459 1460 1460 1460 1460 1461 1461 1462 1462 1463 1464 1465 1466 1466 1467 1468 1468 1468 1466 1466 1466 1466 1465 1464 1464 1463 1462
1461 1460 1459 1458 1458 1457 1457 1456 1456 1455 1455 1455 1455 1455 1455 1455 1455 1456 1456 1456 1456 1456 1457 1457 1458 1459 1459 1460 1461 1462 1462 1463 1463 1463 1462 1462 1461 1461 1461 1460 1458 1458 1457
1458 1457 1456 1456 1455 1455 1454 1453 1453 1453 1452 1452 1452 1452 1452 1452 1452 1451 1452 1452 1452 1453 1453 1453 1454 1454 1455 1456 1457 1457 1458 1458 1458 1458 1458 1457 1457 1456 1456 1455 1454 1453 1452
1455 1455 1454 1453 1453 1452 1451 1451 1450 1450 1450 1450 1449 1449 1449 1449 1449 1448 1448 1448 1448 1448 1449 1449 1449 1450 1451 1452 1452 1453 1454 1454 1453 1454 1453 1453 1452 1452 1452 1451 1451 1449 1448
1453 1452 1452 1451 1450 1449 1449 1448 1448 1447 1447 1447 1447 1446 1446 1446 1446 1445 1445 1445 1445 1444 1445 1445 1445 1446 1447 1447 1448 1448 1449 1449 1450 1450 1449 1449 1448 1448 1448 1447 1447 1446 1444
1451 1450 1450 1449 1448 1447 1446 1445 1445 1445 1445 1445 1444 1444 1444 1443 1443 1442 1442 1441 1441 1441 1441 1441 1442 1442 1442 1443 1443 1444 1444 1445 1445 1445 1445 1445 1445 1445 1444 1444 1443 1442 1441
1449 1448 1448 1447 1446 1445 1444 1444 1444 1444 1443 1443 1442 1442 1441 1441 1440 1440 1439 1438 1438 1438 1438 1438 1438 1438 1439 1439 1440 1439 1440 1440 1441 1441 1441 1441 1441 1441 1441 1440 1439 1437 1435
1447 1447 1446 1445 1444 1443 1443 1442 1442 1442 1442 1441 1441 1440 1440 1439 1438 1437 1437 1436 1436 1435 1435 1435 1435 1435 1436 1436 1436 1436 1435 1436 1436 1436 1437 1437 1437 1436 1436 1436 1435 1434 1432
1446 1445 1444 1443 1442 1442 1441 1441 1441 1441 1440 1440 1439 1439 1438 1437 1436 1436 1435 1434 1433 1433 1433 1432 1432 1432 1432 1433 1433 1432 1432 1433 1433 1433 1432 1432 1432 1432 1432 1432 1431 1430 1429
1444 1443 1442 1442 1441 1440 1440 1440 1439 1439 1439 1438 1438 1437 1436 1435 1435 1434 1433 1433 1432 1431 1430 1430 1430 1430 1429 1430 1430 1429 1429 1430 1429 1429 1428 1428 1428 1428 1428 1427 1427 1426 1426
1443 1442 1441 1440 1440 1439 1439 1438 1438 1438 1437 1437 1436 1435 1434 1434 1433 1432 1432 1431 1430 1429 1428 1428 1427 1427 1427 1426 1427 1427 1427 1426 1426 1425 1425 1425 1425 1424 1424 1423 1423 1422 1422
1441 1440 1440 1439 1439 1438 1438 1437 1437 1436 1436 1435 1435 1434 1433 1432 1432 1431 1430 1429 1428 1427 1427 1426 1425 1425 1424 1424 1424 1423 1423 1423 1422 1422 1421 1421 1421 1421 1420 1419 1418 1418 1417
1440 1439 1439 1438 1438 1437 1437 1437 1436 1436 1435 1435 1434 1433 1432 1431 1431 1430 1429 1428 1426 1426 1425 1424 1423 1422 1422 1421 1421 1420 1420 1420 1419 1419 1419 1418 1418 1417 1417 1416 1415 1415 1414
1438 1438 1438 1437 1437 1437 1436 1436 1435 1435 1434 1433 1433 1432 1431 1430 1429 1428 1427 1426 1425 1424 1423 1422 1421 1420 1420 1419 1418 1418 1418 1417 1417 1416 1416 1416 1415 1414 1414 1413 1412 1412 1411
1437 1437 1437 1436 1436 1436 1435 1434 1434 1434 1433 1432 1431 1430 1430 1428 1427 1426 1425 1424 1423 1423 1421 1420 1419 1419 1418 1417 1416 1416 1415 1415 1415 1414 1414 1413 1413 1412 1411 1411 1410 1409 1409
1437 1436 1436 1435 1435 1435 1434 1434 1433 1432 1431 1430 1430 1429 1428 1427 1426 1424 1423 1423 1421 1421 1419 1418 1418 1417 1416 1416 1415 1414 1414 1413 1413 1412 1411 1411 1411 1410 1409 1408 1408 1407 1407
1435 1435 1435 1434 1434 1434 1433 1432 1432 1431 1430 1429 1428 1428 1427 1425 1424 1423 1422 1421 1420 1419 1418 1417 1416 1415 1414 1414 1413 1412 1412 1411 1411 1410 1410 1409 1409 1408 1407 1407 1406 1406 1405
1434 1434 1434 1433 1433 1433 1432 1431 1431 1430 1429 1428 1427 1426 1425 1424 1422 1421 1420 1419 1418 1417 1416 1416 1415 1414 1413 1412 1411 1411 1410 1409 1409 1408 1408 1407 1407 1406 1406 1405 1404 1404 1403
1433 1433 1433 1432 1432 1432 1431 1430 1430 1429 1428 1427 1426 1426 1424 1423 1422 1421 1419 1418 1417 1416 1415 1414 1413 1412 1411 1410 1410 1409 1408 1407 1407 1406 1406 1405 1405 1404 1404 1403 1403 1402 1402
1432 1432 1432 1432 1431 1431 1430 1430 1429 1428 1428 1427 1426 1425 1424 1422 1421 1420 1419 1417 1416 1415 1414 1413 1411 1410 1409 1409 1408 1407 1406 1405 1405 1404 1404 1403 1403 1402 1402 1401 1401 1400 1400
1431 1431 1431 1431 1430 1430 1429 1429 1428 1427 1427 1426 1425 1424 1423 1421 1420 1419 1418 1416 1415 1414 1413 1411 1410 1409 1408 1407 1406 1405 1405 1404 1403 1403 1402 1402 1401 1401 1400 1400 1400 1399 1399
1430 1430 1430 1429 1429 1429 1428 1428 1427 1426 1425 1424 1424 1423 1421 1420 1419 1418 1417 1415 1414 1413 1411 1410 1409 1408 1407 1406 1405 1404 1403 1403 1402 1401 1401 1400 1400 1400 1399 1399 1399 1398 1398
1429 1429 1429 1428 1428 1427 1427 1426 1425 1425 1424 1423 1422 1421 1420 1419 1418 1417 1415 1414 1413 1411 1410 1409 1408 1407 1406 1405 1404 1403 1402 1402 1401 1401 1400 1400 1399 1399 1399 1398 1398 1398 1397
1428 1428 1427 1427 1426 1426 1425 1425 1424 1423 1422 1421 1421 1420 1419 1418 1416 1415 1414 1413 1412 1410 1409 1408 1407 1406 1405 1404 1403 1402 1402 1401 1400 1400 1400 1399 1399 1398 1398 1398 1397 1397 1397